Flag for Canada Weather past 2 weeks in Kugluktuk, Nunavut, Canada

10 °F

Light snow. Overcast.

Feels Like: 4 °F
Forecast: 1 / 12 °F
Wind: 3 mph from Southeast

Location: Coppermine

Current Time: Nov 28, 2015 at 12:11:43 PM

Latest Report: Nov 28, 2015 at 11:00 AM

Visibility: 15 mi

Pressure: 30.05 "Hg

Humidity: 85%

Dew point: 7 °F

Location of KugluktukLocation

Historic Weather in Kugluktuk — Graph


Kugluktuk temperature yesterday

Maximum temperature yesterday: 14 °F (at 10:00 AM)
Minimum temperature yesterday: -4 °F (at 3:00 AM)
Average temperature yesterday: 6 °F

Past Weeks' High & Low Weather Summary

High14 °F (Nov 16, 6:00 AM)92% (Nov 13, 12:00 PM)30.23 "Hg (Nov 13, 12:00 PM)
Low-15 °F (Nov 20, 3:00 AM)59% (Nov 20, 7:00 PM)29.24 "Hg (Nov 13, 11:00 AM)
Average2 °F81%29.87 "Hg
* Reported Nov 13 11:00 AM — Nov 28 11:00 AM, Kugluktuk, Weather by CustomWeather, © 2015

Note: Actual official high and low records may vary slightly from our data, if they occured in-between our weather recording intervals... More about our weather records


Kugluktuk weather history for previous 24 hours

Time TempWeatherWind HumidityBarometerVisibility
11:00 AM
Sat, Nov 28
10 °FLight snow. Overcast.3 mph85%30.05 "Hg15 mi
10:00 AM10 °FLight snow. Overcast.2 mph79%30.07 "Hg15 mi
9:00 AM10 °FLight snow. Overcast.No wind79%30.09 "Hg10 mi
8:00 AM10 °FLight snow. Overcast.No wind79%30.09 "Hg8 mi
7:00 AM10 °FLight snow. Overcast.3 mph79%30.10 "Hg8 mi
6:00 AM10 °FLight snow. Overcast.7 mph85%30.11 "Hg8 mi
5:00 AM10 °FLight snow. Passing clouds.7 mph85%30.12 "Hg6 mi
4:00 AM12 °FLight snow. Overcast.9 mph85%30.12 "Hg2 mi
3:00 AM12 °FLight snow. Overcast.9 mph85%30.13 "Hg5 mi
2:00 AM10 °FLight snow. Overcast.10 mph92%30.11 "Hg6 mi
1:00 AM10 °FLight snow. Overcast.14 mph85%30.10 "Hg8 mi
12:00 AM9 °FLight snow. Overcast.10 mph85%30.09 "Hg8 mi
11:00 PM
Fri, Nov 27
10 °FLight snow. Overcast.8 mph85%30.09 "Hg8 mi
10:00 PM7 °FLight snow. Mostly cloudy.12 mph85%30.08 "Hg6 mi
9:00 PM7 °FLight snow. Passing clouds.12 mph85%30.07 "Hg8 mi
8:00 PM5 °FLight snow. Mostly cloudy.10 mph92%30.06 "Hg6 mi
7:00 PM9 °FLight snow. Mostly cloudy.12 mph78%30.05 "Hg12 mi
6:00 PM7 °FPassing clouds.16 mph85%30.02 "Hg15 mi
4:00 PM7 °FLight snow. Partly cloudy.15 mph85%29.94 "Hg12 mi
3:00 PM7 °FLight snow. Broken clouds.15 mph85%29.89 "Hg12 mi
2:00 PM7 °FLight snow. Scattered clouds.10 mph85%29.85 "Hg6 mi
1:02 PM10 °FLight snow. Broken clouds.7 mph92%29.82 "Hg10 mi
12:00 PM14 °FLight snow. Partly sunny.6 mph92%29.80 "Hg2 mi
Weather by CustomWeather, © 2015

See weather overviewHow to use our weather pages